Location: *
(18.5200°S, 46.4500°E)
Time: 22:53:37
(UTC+00:00)

Cosmos 1076 Rocket - Pass Details

Date: 19 July 2019
Orbit: 588 x 614 km, 82.5° (Epoch: 21 August)

Event Time Altitude Azimuth Distance (km) Brightness Sun altitude
Rises 16:10:54 0° 187° (S) 2,876 6.9 -22.4°
Reaches altitude 10° 16:13:08 10° 187° (S) 1,970 6.0 -22.9°
Maximum altitude 16:17:30 80° 274° (W) 625 3.5 -23.9°
Drops below altitude 10° 16:21:50 10° 1° (N) 1,960 6.3 -24.9°
Sets 16:24:02 0° 2° (N) 2,860 7.1 -25.4°
